RH
25 18 70 20 26 92 97 93 83 92 82 76 59 44 35 30 29 26 25 25 26 42 59 63 56 60 83 86 82 81 78 72 60 66 82 90 96 88
20 21 43 13 44 98 97 95 92 88 94 94 76 53 54 51 45 30 29 26 28 41 58 71 86 70 84 88 84 88 82 65 67 68 79 95 97 89
25 14 20 13 37 95 97 97 96 95 90 96 92 83 86 86 86 43 32 32 31 40 57 92 88 60 70 89 86 88 83 73 70 73 79 92 94 80
19 10 7 15 44 84 96 97 97 96 96 97 87 89 94 93 94 61 37 34 34 42 70 87 95 66 96 92 92 89 81 74 76 77 79 89 95 79
17 7 6 11 23 96 97 97 97 97 97 96 89 96 95 94 95 84 48 42 45 55 73 86 96 96 96 91 99 99 84 69 69 80 83 91 92 85
13 8 5 6 15 49 85 97 97 96 97 90 84 97 96 95 95 95 84 58 64 76 72 95 97 96 97 96 97 98 86 72 70 83 85 93 89 80
11 10 8 6 6 45 98 99 97 97 97 94 94 97 96 96 96 98 95 91 93 95 98 99 98 100 100 98 97 97 95 92 83 82 84 88 81 77
5 5 5 4 4 5 91 96 97 97 98 92 97 96 98 97 97 97 97 93 92 97 99 98 98 98 98 98 98 95 96 96 93 80 90 94 88 80
6 4 3 5 27 22 51 96 96 97 96 96 96 95 97 97 98 96 97 96 92 97 99 96 98 98 97 97 95 95 97 98 94 89 85 91 78 65
99 70 76 98 96 97 96 97 97 97 96 97 97 97 97 98 98 98 98 96 96 96 95 95 99 98 94 96 94 89 98 100 97 93 88 77 60 55
98 98 97 97 97 97 97 97 98 97 97 92 62 50 44 58 60 79 69 92 88 87 97 97 97 96 97 95 97 96 100 100 99 91 93 58 56 54
40 37 40 21 27 22 16 20 17 10 8 8 7 6 5 5 6 50 61 74 100 98 65 95 84 93 96 100 97 100 100 100 100 98 73 56 57 52
6 5 4 4 4 4 4 3 3 3 3 3 4 4 4 4 5 7 12 18 70 81 75 100 99 94 78 92 97 97 99 98 100 93 82 64 58 56
6 6 6 6 5 5 4 4 4 4 4 4 4 4 4 4 4 5 7 8 9 13 60 86 99 99 98 99 99 98 98 98 95 96 85 71 67 61
9 10 11 10 10 9 8 8 8 7 6 5 5 4 3 3 3 3 4 5 8 10 12 47 71 99 100 96 100 100 100 100 96 94 94 86 71 58
12 12 10 10 9 9 8 7 7 5 4 4 4 4 3 3 3 4 5 6 7 9 13 52 100 100 94 100 99 100 100 100 100 97 93 68 43 38
14 11 10 10 10 10 10 10 9 7 5 4 3 3 3 3 4 10 100 73 71 44 54 100 100 99 99 100 99 99 100 97 100 100 96 40 20 39
13 12 11 11 12 11 9 7 5 4 4 3 3 3 3 3 3 4 50 100 100 100 100 100 94 100 99 100 100 100 100 99 100 100 58 32 29 54
13 13 13 12 10 9 7 6 5 3 3 3 3 4 4 4 4 4 53 100 90 99 98 96 100 100 100 100 100 100 100 100 100 73 36 36 54 87
14 14 12 11 9 8 7 4 3 2 2 2 3 3 3 4 6 7 6 35 100 100 100 100 100 100 100 100 100 100 99 64 44 42 52 57 72 80
15 14 12 9 8 5 4 3 2 3 4 5 6 7 7 6 9 14 13 9 31 100 100 100 100 100 100 100 100 100 92 68 55 66 82 71 67 72
15 10 8 8 6 4 3 2 4 5 8 11 14 13 14 12 12 19 21 14 90 100 100 100 100 100 100 100 100 100 96 90 74 83 82 68 63 74
11 8 7 5 4 4 3 5 10 34 52 27 20 22 24 35 22 24 24 15 93 100 100 100 100 100 99 100 100 98 100 100 84 92 89 79 77 83
Wind_Speed
52 51 53 49 50 48 58 56 58 54 58 55 53 49 47 47 48 48 49 49 49 47 47 45 45 48 50 50 50 44 39 39 37 34 34 35 35 36
54 48 57 51 46 50 60 51 63 50 58 60 54 50 49 49 52 51 51 52 52 51 51 50 50 48 51 51 51 45 44 40 38 36 32 32 34 32
54 53 52 51 48 51 55 59 60 58 58 65 56 55 52 50 55 55 54 55 56 55 56 56 52 50 52 52 44 43 42 41 41 36 32 31 33 29
54 55 55 54 52 55 60 56 58 66 74 69 60 63 59 55 58 57 58 58 60 58 59 62 58 54 52 46 42 42 41 41 37 34 28 27 32 26
58 58 55 59 55 61 63 59 63 64 67 69 71 66 62 60 62 58 61 62 63 63 64 65 64 51 47 45 42 40 37 36 36 32 29 32 30 28
59 59 57 61 64 59 64 61 59 68 60 66 68 64 64 61 65 62 62 65 67 68 63 63 60 48 47 44 42 39 36 35 35 32 31 30 28 25
62 60 60 66 69 64 61 66 57 66 64 72 70 68 66 65 67 62 65 70 71 66 57 55 51 49 44 43 40 36 38 37 35 31 29 29 25 23
59 62 64 66 66 67 70 59 51 61 66 67 65 65 65 65 69 63 62 64 62 53 51 57 57 52 50 45 43 39 40 41 38 37 32 28 24 24
46 49 54 49 47 55 66 63 53 59 59 56 52 59 55 55 54 55 57 61 58 57 52 51 47 48 45 47 48 47 45 45 43 39 28 24 24 20
22 27 34 37 43 47 50 53 51 50 51 53 50 50 58 60 58 58 61 59 61 58 55 52 53 53 52 52 50 50 52 51 47 34 28 24 21 20
27 29 43 41 36 39 43 47 51 47 34 38 40 39 39 42 43 47 48 53 53 50 58 56 55 55 53 50 51 52 55 54 47 40 30 22 22 23
17 16 14 18 23 26 29 33 36 39 40 42 45 46 47 49 50 51 52 57 52 50 49 53 50 59 56 53 51 56 61 59 49 45 30 26 25 26
11 13 17 21 25 30 34 37 41 45 48 52 54 56 59 60 60 61 61 59 58 57 55 56 56 52 54 61 63 61 59 49 44 37 31 31 30 30
16 20 24 28 31 36 41 45 50 54 59 62 65 68 69 69 70 70 69 67 65 64 60 62 64 61 64 67 64 55 50 50 47 35 34 35 33 32
28 33 37 41 45 50 55 59 63 66 70 74 78 81 82 82 81 80 78 75 72 70 69 68 65 63 68 63 52 56 57 50 42 36 36 31 32 37
37 41 44 49 53 57 62 67 72 76 81 86 89 91 93 93 92 90 86 84 80 78 72 67 68 70 68 68 59 50 48 43 44 42 37 33 35 39
42 47 50 55 59 64 71 77 82 88 95 99 101 102 102 101 97 89 76 79 73 75 71 59 59 60 58 51 50 50 54 49 51 51 36 32 36 43
50 55 58 63 68 73 80 86 94 102 109 112 111 109 101 96 89 87 93 84 70 63 64 65 67 63 53 53 50 45 44 47 52 39 33 35 44 45
54 58 62 67 73 80 88 97 107 111 112 104 94 89 87 84 80 80 87 77 81 77 71 61 65 60 57 43 40 41 46 42 34 28 33 42 42 39
58 62 68 73 80 89 98 106 110 108 98 95 90 83 75 73 77 74 74 87 74 65 57 62 58 50 45 40 48 44 32 29 30 34 38 38 39 37
60 66 72 78 87 97 104 106 98 90 83 74 66 58 54 57 63 67 65 66 87 56 61 47 45 46 35 44 42 35 28 29 34 35 35 32 30 31
63 69 77 84 93 100 99 89 78 66 59 54 49 46 43 41 49 52 54 55 58 71 71 54 58 53 46 44 42 35 32 32 31 34 31 28 27 29
64 72 79 86 93 93 80 66 52 41 38 39 38 36 30 25 32 38 40 45 69 58 49 58 58 50 49 41 37 34 37 34 29 33 30 28 28 28
Wind_Direction
245 252 249 253 249 250 252 254 258 257 247 250 258 260 264 266 269 271 273 276 278 281 285 289 292 297 299 304 303 304 306 309 315 311 302 297 296 300
245 246 249 252 249 247 250 253 252 257 253 250 255 258 261 265 270 271 271 274 277 280 283 286 289 292 295 297 300 301 303 306 310 309 300 293 293 296
242 245 247 248 246 247 251 254 246 261 261 256 255 255 255 260 265 271 273 274 275 278 282 286 289 289 293 298 294 295 301 305 306 305 301 298 294 293
243 245 246 250 248 245 246 246 247 261 263 254 253 254 255 257 262 270 273 273 275 280 281 287 286 287 297 292 289 292 298 299 298 298 304 303 296 290
238 241 244 244 250 246 251 252 255 252 253 255 259 257 255 257 261 266 272 274 276 277 279 286 285 288 290 290 286 289 298 302 300 293 300 304 292 292
238 240 240 244 247 247 247 256 249 250 256 257 264 266 256 258 261 265 270 272 271 275 279 288 288 284 286 285 285 288 295 303 302 293 299 298 288 288
240 241 243 244 248 246 247 248 255 255 249 257 266 267 258 261 264 263 265 268 274 287 289 287 282 282 282 278 280 283 292 297 297 294 293 293 290 283
242 242 243 246 249 250 247 250 246 256 250 264 267 267 268 268 271 275 279 283 282 287 282 274 279 277 275 274 276 281 285 290 290 291 289 290 290 292
240 244 245 246 250 246 245 258 256 251 257 264 268 268 271 276 272 272 280 283 281 280 276 279 273 275 272 275 275 276 280 286 286 285 282 276 295 287
229 237 223 242 245 245 253 248 252 257 259 262 270 270 275 277 273 277 277 278 276 275 275 278 273 270 275 274 276 278 276 282 282 275 282 286 282 267
231 243 245 247 253 259 255 260 258 272 276 279 303 299 296 293 291 285 295 280 288 288 272 267 268 266 270 269 271 271 272 278 271 268 283 266 256 260
9 1 342 340 322 311 306 304 298 292 289 286 287 289 289 285 283 279 279 280 273 277 281 284 288 280 267 266 270 269 271 271 264 267 266 255 246 254
335 321 313 306 301 299 298 296 295 294 293 291 290 289 287 284 283 279 275 275 271 272 274 275 275 280 274 271 267 273 271 257 261 264 261 243 243 249
306 302 298 295 294 292 291 291 292 291 290 289 288 287 286 285 281 279 276 274 272 270 268 267 273 278 271 266 265 262 264 268 261 258 236 236 245 252
314 313 311 308 305 301 298 297 296 294 291 289 288 288 286 284 283 281 278 275 270 268 266 264 267 270 270 268 253 259 263 258 254 242 230 243 258 263
308 306 303 302 302 301 300 298 295 292 290 289 288 287 285 281 278 274 271 270 266 263 262 264 267 264 266 259 255 245 243 240 239 242 240 249 261 258
302 301 300 300 300 299 298 297 295 293 292 290 287 285 280 275 271 266 259 265 264 264 257 254 254 260 256 245 250 248 242 246 237 241 252 253 254 255
299 301 300 301 301 301 300 298 297 297 296 292 286 282 279 274 267 257 248 246 247 254 243 246 255 255 256 249 247 245 243 243 239 250 251 253 254 257
301 301 301 301 303 301 300 300 302 301 295 290 286 280 275 270 263 253 241 245 236 245 252 246 259 258 260 241 248 239 241 244 234 239 247 252 256 259
304 305 305 306 304 304 306 308 305 299 296 290 288 284 277 265 258 253 246 234 242 240 233 237 242 234 236 239 231 234 226 221 238 245 250 251 256 259
308 308 309 309 310 313 314 310 305 301 300 296 292 286 277 262 247 245 243 235 227 231 235 232 224 225 242 231 226 227 222 234 243 245 250 251 254 259
312 311 312 314 317 318 314 310 306 306 305 303 297 288 278 266 247 242 236 234 220 230 236 237 238 231 230 222 226 231 232 238 245 245 244 247 254 257
312 311 314 321 322 320 317 315 316 320 327 324 309 295 279 262 244 236 224 226 215 222 218 228 224 221 217 213 224 231 238 236 243 245 248 252 254 259